Regional Weather Roundup
Issued by NWS Sterling, VA

Home | Current Version | Previous Version | Graphics & Text | Print | Product List | Glossary Off
Versions: 1 2 3 4 5 6 7 8 9 10 11 12 13 14 15 16 17 18 19 20 21 22 23 24 25 26 27

000
ASUS41 KLWX 270211
RWRLWX

REGIONAL WEATHER ROUNDUP
NATIONAL WEATHER SERVICE BALTIMORE MD/WASHINGTON DC
1000 PM EDT THU APR 26 2018

Note: "FAIR" indicates few or no clouds below 12,000 feet
with no significant weather and/or obstructions to visibility.
 TC=TEMPERATURE CELSIUS

 * =Non NWS site. Station does not report precipitation (e.g. rain,
    snow, etc.), thunder, or fog.

DCZ001-MDZ009-015-VAZ040>042-051-053>054-270300-
WASHINGTON METRO

CITY           SKY/WX    TMP DP  RH WIND       PRES   REMARKS
WASHINGTON NAT CLOUDY    64  40  41 SE10      29.87R
DULLES         CLOUDY    61  40  45 E5        29.86R
ANDREWS AFB    FAIR      59  41  52 SE5       29.87R
FT BELVOIR     FAIR      60  45  58 CALM      29.87R
QUANTICO       FAIR      64  45  49 E6        29.87R
COLLEGE PARK*  FAIR      60  39  46 CALM      29.87R
LEESBURG*      FAIR      63  37  39 CALM      29.88R
MANASSAS*      FAIR      60  46  59 CALM      29.86
GAITHERSBURG*  FAIR      59  37  44 E3        29.88S

$$

MDZ006>007-011-014-270300-
BALTIMORE METRO

CITY           SKY/WX    TMP DP  RH WIND       PRES   REMARKS
BWI AIRPORT    CLOUDY    60  41  49 SE6       29.87S
MD SCIENCE CTR   N/A     63  42  46 MISG      29.88S
MARTIN STATE   PTCLDY    59  46  63 CALM      29.90R
ANNAPOLIS      FAIR      60  51  72 SE3       29.88R
FORT MEADE*    FAIR      54  43  66 E3        29.90S

$$

MDZ012-015-019>023-270300-
MARYLAND EASTERN SHORE

CITY           SKY/WX    TMP DP  RH WIND       PRES   REMARKS
OCEAN CITY     FAIR      56  49  77 SW6       29.91R
SALISBURY      FAIR      57  46  66 S6        29.89R
BAY BRIDGE AP* FAIR      57  50  77 CALM      29.88S
CAMBRIDGE*     PTCLDY    55  48  76 E3        29.89R

$$

MDZ017>025-270300-
SOUTHERN MARYLAND

CITY           SKY/WX    TMP DP  RH WIND       PRES   REMARKS
PATUXENT RIVER CLOUDY    63  47  55 SE9       29.87S
ST INIGOES     NOT AVBL
LEONARDTOWN*   FAIR      59  45  58 SE6       29.89S

$$

MDZ003>005-270300-
NORTH CENTRAL MARYLAND

CITY           SKY/WX    TMP DP  RH WIND       PRES   REMARKS
FREDERICK*     FAIR      55  43  62 N3        29.89S
HAGERSTOWN APT FAIR      62  36  37 NE3       29.86S
WESTMINSTER*   FAIR      57  43  58 SE3       29.88S

$$

MDZ501>502-270300-
WESTERN MARYLAND

CITY           SKY/WX    TMP DP  RH WIND       PRES   REMARKS
OAKLAND*       FAIR      48  30  49 CALM      29.89S
CUMBERLAND*    FAIR      59  32  36 N5        29.90S

$$

VAZ025>031-270300-
SHENANDOAH VALLEY

CITY           SKY/WX    TMP DP  RH WIND       PRES   REMARKS
WINCHESTER*    FAIR      55  36  47 CALM      29.87S
FRONT ROYAL*   FAIR      59  39  47 CALM      29.85R
LURAY*         CLOUDY    61  39  44 CALM      29.84S
NEW MARKET*    CLOUDY    58  44  58 CALM      29.83S
STAUNTON*      CLOUDY    58  47  67 CALM      29.87R
WAYNESBORO*    CLOUDY    60  42  50 SW3       29.86R

$$

WVZ021-048>050-054>055-270300-
EASTERN WEST VIRGINIA PANHANDLE

CITY           SKY/WX    TMP DP  RH WIND       PRES   REMARKS
MARTINSBURG    FAIR      59  37  44 E3        29.85R
PETERSBURG*    CLOUDY    57  43  60 CALM      29.85S

$$

VAZ036>039-050-270300-
CENTRAL FOOTHILLS

CITY           SKY/WX    TMP DP  RH WIND       PRES   REMARKS
CHARLOTTESVILL MOCLDY    67  44  43 S3        29.84R
CULPEPER*      FAIR      62  43  49 CALM      29.85S
ORANGE*        CLOUDY    59  48  67 CALM      29.85R
GORDONSVILLE*  CLOUDY    61  51  70 CALM      29.84R
WARRENTON*     FAIR      64  36  34 NE5       29.84S

$$

VAZ055>057-270300-
NORTH AND CENTRAL PIEDMONT

CITY           SKY/WX    TMP DP  RH WIND       PRES   REMARKS
FREDERICKSBRG* FAIR      64  43  46 E7        29.85R
STAFFORD*      FAIR      63  41  44 E5        29.88S

$$

NCZ024-NYZ072-PAZ021-071-VAZ022-071-270300-
OTHER REGIONAL OBSERVATIONS

CITY           SKY/WX    TMP DP  RH WIND       PRES   REMARKS
NEW YORK CITY  FAIR      63  42  46 NW3       29.89R
PHILADELPHIA   FAIR      63  40  42 NW5       29.89R
PITTSBURGH     CLOUDY    56  37  49 CALM      29.87S
ROANOKE        LGT RAIN  56  53  90 N6        29.87F
RICHMOND       CLOUDY    64  54  69 SE10      29.86R
RALEIGH        TSTM      61  60  97 NW6       29.82R FOG

$$

ANZ530>537-270300-
MARINE OBSERVATIONS

STATION/POSITION TIME  TEMP    WIND        PRES
                       AIR SEA DIR/SP/G
                 (UTC) (F)     (DEG/KT/KT) (MB)
THOMAS PT LIGHT  0200   58 56   70/  6/  6 1012.8R
BALT KEY BRIDGE  0136   61     170/  5/  6 1011.7R
COVE POINT       0136   58     180/ 10/ 11 1012.4R
LEWISETTA        0136   60 58  130/  5/  6 1011.5F
SOLOMONS ISLAND  0136   59 56  150/ 10/ 11 1011.2F
PINEY POINT      0148          140/ 10/ 11   N/A

$$





USA.gov is the U.S. government's official web portal to all federal, state and local government web resources and services.